STAR ONE D1

Last updated on Sat Aug 22 2026 00:02:59 GMT+0000 (Coordinated Universal Time)

1 41904U 16082B 26233.46562113 -.00000212 00000+0 00000+0 0 9993 2 41904 0.0146 214.9760 0002118 279.4636 278.9697 1.00268568 35427
UTC large
Height (km)
Speed (km/s)
/
Latitude / Longitude
Inclination (degrees)
Orbital Period (minutes)
Azimuth
Elevation
Range (km)
Doppler Factor

Next 0 passes for location: London (51.5072 / 0.1276)

No passes found over London.
STAR ONE D1